#timestamp,LO_Frequency,Hit,StdDev 
1527778815.2,286047002.7,N
1527778835.0,286047002.6,N
1527778835.9,286047002.6,N
1527778855.8,286047002.4,N
1527778875.6,286047002.5,N
1527778895.4,286047001.5,N
1527778915.3,286047002.0,N
1527778935.1,286047002.0,N
1527778955.9,286047002.2,N
1527778975.7,286047002.5,N
1527778995.5,286047000.0,N
1527779015.4,286047000.0,N
1527779035.2,286046999.9,N
1527779055.0,286047000.2,N
1527779056.0,286047000.2,N
1527779075.8,286047001.2,N
1527779095.6,286047000.5,N
1527779115.5,286047000.9,N
1527779135.3,286047000.0,N
1527779155.1,286047000.6,N
1527779175.9,286046999.7,N
1527779195.7,286047001.9,N
1527779215.6,286047001.3,N
1527779235.4,286047003.5,Y
1527779255.2,286047002.1,P
1527779275.1,286047001.7,P
1527779276.0,286047001.7,P
1527779295.8,286047001.5,Y
1527779315.6,286046999.8,P
1527779335.5,286046998.1,N
1527779355.3,286047000.7,N
1527779375.2,286046998.1,N
1527779395.9,286046999.3,N
1527779415.7,286046998.9,N
1527779435.6,286046999.5,N
1527779455.4,286046999.3,N
1527779475.2,286046999.1,N
1527779495.1,286046998.2,N
1527779496.0,286046998.2,N
1527779515.8,286046998.2,N
1527779535.7,286046998.5,N
1527779555.5,286046998.6,N
1527779575.3,286047000.5,N
1527779595.2,286047000.5,N
1527779615.0,286046999.9,N
1527779615.9,286046999.9,N
1527779635.8,286047001.2,N
1527779655.6,286046999.1,N
1527779675.4,286046998.8,N
1527779695.3,286046998.7,N
1527779715.1,286046998.8,N
1527779735.8,286046998.9,N
1527779755.7,286046999.4,N
1527779775.5,286046999.6,N
1527779795.4,286046999.6,N
1527779815.2,286046998.8,N
1527779835.0,286046998.7,N
1527779835.9,286046998.7,N
1527779855.8,286046998.4,N
1527779875.6,286046998.7,N
1527779895.4,286046998.5,N
1527779915.3,286046998.3,N
1527779935.1,286046998.7,N
1527779955.9,286046998.8,N
1527779975.7,286046999.1,N
1527779995.5,286046998.9,N
1527780015.4,286046998.3,N
1527780035.2,286046998.4,N
1527780055.1,286046998.4,N
1527780056.0,286046998.4,N
1527780075.8,286046999.0,N
1527780095.6,286047001.2,N
1527780115.5,286047001.2,N
1527780135.3,286047000.6,N
1527780155.2,286046998.2,N
1527780175.9,286046998.4,N
1527780195.7,286046998.7,N
1527780215.6,286046999.4,N
1527780235.4,286046998.7,N
1527780255.2,286046998.5,N
1527780275.1,286046998.7,N
1527780276.0,286046998.7,N
1527780295.8,286047001.2,N
1527780315.7,286047000.8,N
1527780335.5,286047001.2,N
1527780355.3,286046998.6,N
1527780375.2,286046999.4,N
1527780395.0,286046998.4,N
1527780395.9,286046998.4,N
1527780415.8,286046999.3,N
1527780435.6,286046998.1,N
1527780455.4,286047001.1,N
1527780475.3,286046999.3,N
1527780495.1,286046999.3,N
1527780515.8,286046998.2,N
1527780535.7,286047001.2,N
1527780555.5,286047000.8,N
1527780575.4,286046998.2,N
1527780595.2,286046999.0,N
1527780615.0,286046999.5,N
1527780615.9,286046999.5,N
1527780635.8,286046999.4,N
1527780655.6,286046998.7,N
1527780675.5,286047000.5,N
1527780695.3,286047000.0,N
1527780715.1,286047001.2,N
1527780735.9,286046998.8,N
1527780755.7,286046998.5,N
1527780775.6,286046998.2,N
1527780795.4,286046998.3,N
1527780815.2,286046998.8,N
1527780835.1,286046998.3,N
1527780836.0,286046998.3,N
1527780855.8,286046998.5,N
1527780875.7,286046998.9,N
1527780895.5,286046998.2,N
1527780915.3,286047001.0,N
1527780935.2,286047001.2,N
1527780955.0,286047002.8,N
1527780955.9,286047002.8,N
1527780975.8,286047002.3,N
1527780995.6,286047004.2,N
1527781015.4,286047003.6,N
1527781035.3,286047002.2,N
1527781055.1,286046999.7,N
1527781075.8,286047000.6,N
1527781095.7,286047001.0,N
1527781115.5,286046998.1,N
1527781135.4,286046998.6,N
1527781155.2,286046998.9,N
1527781175.0,286046998.7,N
1527781175.9,286046998.7,N
1527781195.8,286047000.7,N
1527781215.6,286047001.1,N
1527781235.5,286047000.3,N
1527781255.3,286047000.6,N
1527781275.1,286046998.9,N
1527781295.9,286046998.5,N
1527781315.7,286046998.5,N
1527781335.6,286046999.3,N
1527781355.4,286047000.8,N
1527781375.2,286047000.9,N
1527781395.1,286047000.8,N
1527781396.0,286047000.8,N
1527781415.8,286047000.7,N
1527781435.6,286047000.6,N
1527781455.5,286047001.1,N
1527781475.3,286047000.4,N
1527781495.2,286047000.5,N
1527781515.9,286046998.2,N
1527781535.7,286047001.0,N
1527781555.6,286047000.6,N
1527781575.4,286047000.7,N
1527781595.2,286047000.6,N
1527781615.1,286047002.8,N
1527781616.0,286047002.8,N
1527781635.8,286047002.1,N
1527781655.7,286047001.6,N
1527781675.5,286047002.4,N
1527781695.3,286047002.1,N
1527781715.2,286047004.3,Y
1527781735.0,286047001.3,P
1527781735.9,286047001.3,P
1527781755.8,286047002.1,P
1527781775.6,286047002.2,Y
1527781795.4,286047000.4,P
1527781815.3,286047000.7,N
1527781835.1,286046998.1,P
1527781855.8,286046998.1,N
1527781875.7,286047000.4,N
1527781895.5,286046998.1,N
1527781915.4,286046998.6,N
1527781935.2,286047001.2,N
1527781955.0,286047000.9,N
1527781955.9,286047000.9,N
1527781975.8,286047002.7,N
1527781995.6,286046999.9,N
1527782015.4,286046999.7,N
1527782035.3,286047002.3,N
1527782055.1,286047001.9,N
1527782075.9,286047002.1,N
1527782095.7,286047002.1,N
1527782115.5,286047002.7,N
1527782135.4,286047002.6,N
1527782155.2,286047001.4,N
1527782175.1,286047001.5,N
1527782176.0,286047001.5,N
1527782195.8,286047002.1,N
1527782215.6,286047001.9,N
1527782235.5,286047002.8,N
1527782255.3,286046999.7,N
1527782275.1,286047000.3,N
1527782295.9,286047001.1,N
1527782315.7,286047000.8,N
1527782335.6,286046998.1,N
1527782355.4,286047001.2,N
1527782375.2,286047001.1,N
1527782395.1,286047000.3,N
1527782396.0,286047000.3,N
